Wind_Speed
4 3 5 5 6 11 9 6 7 8 9 8 7 6 7 11 10 4 1 2 4 4 4 4 4 6 10 13 15 14 13 14 14 14 15 16 18 18 18 20 24 25 26 25
4 3 5 5 3 9 10 2 8 5 10 9 5 6 3 1 4 10 11 11 10 8 7 5 3 3 4 5 6 7 8 9 11 12 15 18 18 17 17 20 25 26 24 19
4 1 1 4 8 10 4 5 6 8 11 4 6 6 7 8 12 15 17 19 19 17 15 12 8 5 3 1 2 4 6 9 11 13 15 16 16 19 20 21 25 22 22 29
3 2 7 2 1 3 11 9 10 8 7 6 5 8 11 12 16 16 16 18 17 14 12 10 8 6 5 4 4 3 3 4 6 7 10 11 13 15 15 17 16 25 22 25
5 5 4 2 5 7 7 15 11 13 6 8 17 12 5 12 14 16 16 15 14 11 10 9 8 8 7 6 7 6 4 2 1 3 5 7 9 11 9 17 15 18 23 20
3 5 9 4 3 8 5 13 8 13 10 19 17 7 5 15 15 15 13 13 13 13 12 10 10 9 8 10 9 9 9 8 6 3 1 4 6 12 15 15 14 15 16 17
3 3 6 6 5 12 6 12 11 19 22 25 9 3 22 20 17 14 13 13 13 13 13 13 12 11 12 13 12 11 9 6 3 3 7 9 7 6 7 10 13 15 18 19
3 2 6 11 8 10 7 4 10 21 27 23 14 20 26 21 18 16 15 15 14 16 17 16 14 10 13 12 12 8 5 2 1 1 2 4 6 8 11 14 17 19 22 25
9 7 3 26 8 24 8 7 10 26 31 28 24 26 26 24 20 19 18 18 18 17 18 16 14 11 10 10 8 5 4 2 1 4 6 8 10 12 14 17 20 23 26 29
3 6 8 18 24 13 17 13 12 26 33 29 26 27 27 25 24 23 21 21 19 18 17 17 14 11 9 9 7 4 2 2 5 7 9 11 13 16 18 20 22 25 26 28
3 4 2 16 24 22 19 16 16 23 29 30 27 29 28 27 26 25 24 22 20 18 17 16 14 11 10 7 5 1 2 5 7 10 13 15 17 19 20 20 20 22 23 24
7 16 13 17 33 26 23 21 22 28 27 26 27 30 29 28 27 27 25 23 21 18 16 16 12 9 7 4 2 3 6 8 11 14 16 18 20 21 21 22 22 21 20 20
5 10 20 11 17 28 26 26 26 28 29 30 28 28 30 31 29 27 25 23 20 19 16 13 10 6 4 3 4 6 9 11 14 16 18 20 22 24 26 25 25 24 22 22
18 13 8 14 12 23 24 27 26 25 26 27 30 30 30 31 30 27 25 22 19 17 14 11 8 5 3 3 6 9 11 13 15 17 19 20 22 23 24 25 27 26 26 26
16 20 15 20 18 27 26 27 28 29 29 30 30 33 32 33 31 28 24 21 18 14 12 9 5 3 2 5 8 10 12 15 16 17 18 20 21 22 23 24 26 27 28 28
23 15 13 23 28 28 30 29 31 31 31 32 33 33 32 30 29 26 23 18 15 13 9 6 3 2 4 7 9 12 14 16 16 17 18 19 20 22 23 24 25 26 27 29
16 10 14 20 26 28 27 24 24 29 30 32 33 33 33 31 28 25 22 17 13 10 7 3 1 4 6 9 11 14 15 16 16 17 18 19 20 21 22 22 23 25 25 25
9 7 13 16 26 29 26 26 27 28 30 30 30 29 26 25 25 22 18 15 12 8 4 1 2 5 8 11 13 14 15 15 16 17 18 18 19 20 20 21 22 24 25 25
6 6 5 15 24 24 25 26 28 28 28 28 28 25 20 18 17 15 15 12 9 6 3 2 5 7 10 12 13 14 14 15 15 16 17 18 18 19 20 21 21 22 24 25
11 15 16 21 21 24 27 25 26 27 25 24 23 22 19 15 15 12 13 10 7 4 3 4 6 9 11 13 14 14 15 15 15 16 17 17 18 18 19 20 21 22 24 24
15 20 23 24 25 24 25 27 28 29 26 22 18 17 17 16 15 13 11 8 6 4 3 5 8 11 12 14 14 14 14 15 15 16 17 17 17 18 19 20 21 23 24 24
21 23 23 23 25 27 25 24 23 23 20 17 16 16 16 18 15 12 9 5 4 4 5 8 11 13 13 13 14 14 15 15 16 16 17 17 18 19 20 21 22 23 24 24
18 20 23 24 25 26 25 21 16 16 16 15 14 14 14 12 10 6 5 4 5 6 8 11 14 15 15 14 14 15 15 16 16 16 17 17 19 20 21 21 22 23 24 24
22 22 23 22 21 21 20 18 16 13 12 12 11 8 5 4 4 4 5 5 7 10 11 14 15 16 15 15 15 16 16 16 16 16 17 18 19 19 20 21 22 22 23 24
20 20 18 17 18 17 17 14 12 11 8 7 6 5 4 4 7 7 7 8 10 12 14 16 17 17 16 16 16 16 17 17 17 17 18 18 19 19 20 21 22 23 23 24
18 18 17 15 14 12 11 9 7 7 4 3 3 5 7 8 8 8 9 11 13 14 16 17 17 17 16 16 16 17 17 17 17 18 19 19 19 19 20 21 22 23 23 23
20 18 17 17 14 11 8 6 4 2 1 4 6 7 8 9 10 12 13 14 16 16 17 18 17 17 16 16 16 17 18 18 19 19 19 19 19 20 20 22 22 22 22 22
Wind_Direction
233 213 176 202 187 180 196 203 193 243 211 247 248 263 279 295 305 319 143 180 185 195 202 225 236 247 250 250 267 283 293 290 279 267 259 250 250 252 245 234 223 230 225 220
185 105 192 228 182 199 218 221 256 245 249 236 229 244 289 315 123 105 102 105 108 111 117 132 169 207 237 262 281 291 291 280 267 256 249 246 249 244 238 231 230 226 223 216
219 120 174 291 213 206 202 211 203 232 245 180 199 186 135 126 121 111 106 103 98 95 93 93 88 78 70 18 298 290 284 274 264 258 254 253 248 243 238 228 227 216 241 267
155 141 228 229 119 201 225 246 222 256 239 224 175 134 133 140 132 120 112 106 102 97 95 90 84 73 53 32 6 345 300 271 262 257 254 249 241 231 231 236 240 274 277 282
155 193 294 223 191 183 178 253 219 227 206 159 143 126 108 146 142 127 118 113 110 107 104 101 95 83 75 73 69 69 80 87 185 240 259 254 256 273 258 276 290 282 288 284
159 172 212 183 210 154 118 274 200 196 177 161 161 170 167 159 145 135 131 125 122 118 114 113 103 98 102 100 104 103 97 93 88 83 340 307 289 286 293 291 285 287 289 288
165 210 287 242 147 143 157 261 199 197 176 168 181 176 163 161 153 145 131 125 124 125 125 114 109 113 112 109 103 100 100 102 99 297 293 298 308 319 312 300 294 294 293 291
121 114 254 155 123 174 208 198 225 195 182 170 168 148 154 158 152 144 141 138 138 136 125 117 113 116 111 110 111 118 127 139 310 335 341 324 317 311 309 306 303 301 299 296
190 203 196 183 202 203 194 216 213 198 185 178 161 158 160 158 153 149 149 144 140 138 130 125 123 120 119 115 125 126 121 100 19 338 333 331 327 323 319 314 310 307 305 302
125 206 214 210 217 216 223 227 230 199 186 188 174 167 164 159 155 153 150 147 145 141 135 132 133 131 119 118 118 113 82 15 346 335 332 328 324 320 317 314 311 309 308 308
266 264 301 240 223 224 217 212 200 188 191 189 182 172 169 162 159 157 154 151 151 148 142 136 132 128 123 124 117 88 4 346 337 331 327 326 325 324 323 323 321 319 317 315
212 208 194 225 223 212 207 200 194 189 183 186 187 176 170 164 163 161 158 156 153 149 145 136 134 128 126 114 70 10 346 340 337 335 333 331 329 328 328 328 329 328 323 318
244 224 219 237 207 203 200 194 192 191 192 182 177 177 172 165 164 162 159 158 156 150 144 137 136 129 104 56 5 349 344 343 341 338 336 335 335 335 334 333 334 332 334 329
220 190 183 204 197 193 196 185 184 182 180 180 175 171 170 165 159 161 159 158 154 149 144 144 138 129 90 16 353 347 346 343 341 339 339 338 337 337 336 334 335 335 336 334
201 211 218 220 193 185 187 182 174 172 173 168 171 169 168 161 160 160 158 155 152 150 148 145 140 109 36 1 349 344 343 342 342 341 340 339 337 337 336 336 334 333 332 332
202 220 188 193 184 181 180 179 179 168 170 168 165 164 164 162 159 156 153 155 157 152 149 146 134 50 8 351 343 341 341 341 341 341 340 338 337 337 336 335 333 332 333 333
167 170 169 171 173 170 170 171 176 169 166 166 165 164 163 159 156 155 155 155 157 154 149 135 56 0 344 339 339 339 340 339 340 339 337 336 336 335 334 333 332 331 332 332
213 213 194 196 182 171 168 170 170 168 164 162 159 156 155 157 153 155 156 157 160 159 157 148 329 332 333 335 336 337 337 336 335 335 334 333 332 331 331 331 330 330 330 333
151 122 134 190 187 170 167 165 165 165 158 155 150 149 154 156 151 151 157 167 172 175 182 269 314 328 330 333 333 332 332 332 331 331 332 331 329 329 329 329 329 330 330 332
135 143 157 169 166 171 156 151 153 150 150 150 144 147 146 158 160 171 183 181 180 196 233 291 319 328 330 328 328 328 328 329 331 330 327 327 327 328 328 328 328 329 331 331
149 154 151 154 151 149 151 152 151 145 141 145 158 159 161 171 182 183 188 193 196 228 278 314 326 327 324 322 322 323 326 329 327 323 324 326 327 327 327 327 329 330 330 330
140 138 140 140 136 132 134 138 144 146 151 156 160 172 187 179 181 188 197 214 228 277 307 320 324 323 321 321 321 323 325 323 320 321 323 325 326 327 328 329 330 331 330 330
121 126 129 132 132 132 133 138 147 149 151 168 177 179 181 183 184 199 221 243 271 295 313 320 321 323 321 318 319 319 319 318 319 319 321 323 326 327 328 329 330 329 329 329
117 118 119 125 131 136 135 134 146 152 158 159 162 165 178 195 223 262 282 289 303 311 316 318 319 318 316 314 314 315 317 317 316 317 319 322 323 323 324 326 327 328 327 327
113 116 120 126 130 127 132 133 141 144 153 160 168 185 215 253 280 287 292 300 308 311 312 313 314 314 311 308 310 313 316 318 316 316 318 319 319 320 322 325 326 327 326 326
109 109 110 112 111 117 124 134 149 147 161 189 249 283 295 300 304 304 303 305 307 306 308 312 313 310 307 307 308 312 315 316 314 314 314 315 316 318 320 322 324 325 324 325
100 103 103 102 102 105 111 113 110 105 310 306 308 310 306 303 300 302 304 304 305 308 311 313 312 311 310 309 310 311 312 312 312 312 311 312 313 316 318 320 322 322 323 324
Height
1468 1466 1469 1470 1470 1477 1478 1476 1479 1471 1478 1467 1463 1464 1463 1462 1462 1462 1462 1464 1466 1468 1471 1474 1477 1480 1483 1486 1488 1490 1491 1493 1494 1496 1499 1501 1504 1506 1508 1511 1513 1516 1515 1512
1469 1470 1469 1468 1468 1472 1472 1474 1474 1472 1467 1461 1460 1462 1462 1462 1462 1461 1461 1463 1464 1467 1469 1471 1475 1477 1480 1483 1484 1486 1487 1489 1491 1493 1496 1498 1500 1503 1506 1507 1509 1511 1511 1511
1470 1474 1470 1476 1467 1464 1466 1465 1462 1467 1455 1457 1459 1460 1460 1462 1462 1463 1463 1463 1465 1467 1469 1472 1473 1475 1477 1479 1481 1483 1485 1487 1489 1491 1493 1496 1497 1498 1499 1499 1504 1504 1506 1509
1474 1480 1477 1452 1454 1455 1456 1455 1455 1454 1452 1454 1456 1459 1460 1461 1462 1463 1465 1465 1466 1469 1471 1472 1474 1476 1477 1478 1479 1481 1484 1486 1488 1490 1491 1493 1494 1496 1499 1500 1503 1504 1504 1504
1469 1467 1459 1451 1452 1453 1455 1442 1442 1445 1449 1453 1455 1458 1461 1460 1461 1462 1464 1465 1467 1469 1471 1473 1474 1475 1477 1478 1480 1482 1484 1486 1487 1489 1491 1493 1495 1496 1499 1501 1499 1499 1498 1497
1473 1461 1460 1443 1439 1442 1446 1447 1436 1438 1443 1447 1453 1455 1456 1459 1460 1462 1464 1465 1467 1469 1471 1473 1474 1476 1477 1479 1481 1482 1485 1487 1490 1492 1494 1494 1495 1496 1495 1495 1494 1494 1493 1492
1467 1453 1447 1436 1437 1440 1453 1436 1430 1433 1436 1442 1445 1445 1449 1456 1459 1461 1462 1465 1467 1470 1471 1472 1474 1477 1477 1480 1482 1485 1487 1489 1490 1491 1492 1493 1492 1492 1492 1491 1491 1490 1489 1488
1460 1454 1446 1429 1437 1440 1426 1425 1427 1430 1433 1438 1441 1444 1448 1454 1457 1460 1462 1465 1468 1469 1471 1473 1476 1478 1479 1482 1484 1486 1487 1489 1490 1490 1490 1490 1490 1490 1489 1488 1487 1486 1483 1481
1427 1424 1417 1418 1415 1418 1419 1421 1423 1427 1431 1436 1439 1442 1446 1450 1455 1459 1462 1465 1468 1469 1471 1474 1477 1479 1481 1482 1484 1486 1487 1488 1489 1489 1489 1489 1488 1487 1486 1485 1482 1480 1478 1474
1419 1412 1410 1411 1413 1415 1416 1417 1419 1423 1428 1432 1435 1440 1444 1448 1453 1457 1461 1464 1467 1469 1471 1474 1477 1479 1480 1482 1484 1486 1487 1487 1488 1488 1487 1486 1485 1483 1482 1480 1478 1475 1471 1467
1413 1408 1410 1408 1406 1409 1412 1414 1417 1422 1427 1430 1433 1438 1442 1447 1452 1456 1459 1463 1467 1470 1472 1475 1478 1479 1481 1483 1484 1485 1485 1485 1485 1485 1484 1483 1481 1480 1478 1476 1473 1469 1465 1462
1402 1390 1392 1392 1396 1402 1406 1408 1413 1417 1423 1428 1432 1434 1440 1445 1450 1454 1458 1463 1466 1470 1472 1475 1477 1479 1481 1483 1483 1484 1484 1483 1482 1480 1479 1477 1476 1475 1473 1470 1467 1464 1461 1457
1387 1386 1392 1392 1392 1396 1400 1403 1408 1412 1417 1421 1428 1432 1437 1441 1447 1452 1457 1462 1465 1468 1471 1473 1476 1479 1480 1481 1482 1481 1481 1479 1478 1476 1475 1473 1470 1467 1464 1462 1459 1457 1454 1450
1385 1384 1391 1391 1391 1395 1400 1401 1405 1411 1416 1420 1424 1431 1435 1440 1447 1453 1457 1461 1464 1467 1470 1473 1474 1476 1477 1479 1480 1479 1478 1476 1475 1472 1470 1468 1465 1462 1459 1455 1451 1449 1447 1443
1381 1384 1381 1387 1389 1391 1396 1400 1404 1407 1413 1418 1424 1427 1432 1437 1444 1450 1455 1460 1463 1466 1469 1471 1474 1475 1475 1476 1476 1476 1474 1472 1470 1468 1466 1464 1461 1458 1455 1452 1448 1444 1440 1437
1380 1383 1380 1384 1383 1389 1391 1398 1401 1406 1412 1417 1422 1429 1433 1438 1443 1449 1455 1459 1461 1464 1467 1470 1472 1473 1473 1473 1473 1472 1470 1469 1467 1465 1463 1460 1457 1454 1451 1447 1444 1440 1436 1431
1377 1384 1382 1382 1385 1389 1395 1401 1408 1410 1415 1419 1424 1429 1431 1434 1442 1449 1453 1457 1460 1462 1465 1467 1469 1470 1470 1470 1469 1468 1466 1464 1463 1461 1458 1456 1453 1450 1447 1444 1440 1436 1433 1429
1380 1380 1383 1387 1393 1391 1396 1399 1406 1415 1419 1424 1430 1432 1438 1442 1440 1447 1453 1456 1459 1460 1463 1465 1466 1467 1467 1466 1465 1464 1462 1461 1459 1457 1455 1452 1450 1446 1443 1440 1437 1432 1429 1425
1381 1378 1379 1392 1397 1391 1399 1405 1409 1415 1420 1424 1429 1434 1441 1445 1449 1452 1456 1458 1458 1459 1461 1462 1463 1463 1463 1462 1461 1460 1459 1457 1456 1453 1451 1448 1446 1442 1439 1436 1432 1428 1424 1420
1379 1379 1385 1393 1395 1400 1401 1408 1414 1420 1427 1433 1433 1439 1443 1448 1451 1454 1457 1458 1457 1458 1459 1460 1460 1459 1459 1458 1458 1456 1455 1453 1451 1449 1447 1444 1442 1439 1435 1432 1428 1424 1420 1416
1383 1387 1389 1397 1401 1403 1407 1412 1417 1422 1427 1436 1438 1441 1445 1448 1451 1454 1457 1456 1455 1456 1456 1457 1457 1456 1455 1454 1453 1452 1450 1448 1447 1445 1442 1440 1437 1434 1431 1427 1423 1419 1415 1411
1394 1395 1399 1403 1405 1409 1415 1420 1425 1429 1433 1438 1441 1444 1447 1449 1451 1454 1454 1454 1453 1453 1453 1453 1453 1452 1451 1450 1449 1447 1445 1444 1442 1440 1437 1435 1432 1429 1426 1422 1418 1415 1411 1407
1401 1403 1406 1409 1412 1416 1422 1427 1432 1436 1438 1442 1443 1447 1449 1450 1452 1453 1453 1452 1452 1451 1450 1450 1449 1448 1447 1446 1444 1443 1441 1439 1437 1435 1432 1430 1426 1423 1420 1417 1414 1410 1407 1402
1409 1412 1415 1417 1421 1426 1429 1433 1436 1440 1443 1445 1447 1449 1452 1452 1453 1452 1451 1450 1449 1448 1447 1446 1445 1444 1442 1441 1440 1438 1436 1434 1432 1429 1426 1424 1421 1418 1415 1412 1409 1406 1402 1398
1418 1420 1422 1425 1429 1432 1435 1438 1441 1444 1446 1448 1449 1450 1451 1450 1451 1450 1449 1448 1447 1446 1444 1443 1441 1439 1437 1436 1434 1433 1431 1429 1426 1424 1421 1419 1417 1414 1411 1407 1404 1400 1397 1393
1425 1427 1430 1433 1435 1439 1441 1443 1445 1446 1447 1448 1449 1449 1449 1448 1447 1446 1445 1444 1443 1442 1441 1439 1437 1435 1433 1431 1429 1428 1426 1423 1421 1419 1416 1414 1411 1408 1406 1403 1399 1396 1392 1388
1433 1435 1437 1438 1441 1442 1444 1446 1447 1448 1448 1448 1448 1448 1447 1446 1445 1444 1442 1441 1439 1437 1436 1434 1432 1430 1428 1426 1424 1422 1420 1418 1416 1414 1411 1408 1406 1403 1400 1397 1394 1391 1387 1383